This demonstration page uses our WeatherBlox Daily Observations layout. Learn more.

Left ArrowRight Arrow

Hourly Observations for February 18, 2016

Temp ( °F °C ) Dew Point ( °F °C ) Humidity (%) Winds ( mph kmh ) Pressure ( in mb ) Visibility ( mi km ) Precip ( " mm )
12:15 am 00:15 Cloudy 28 -2 23 -5 80 80 N 5 7 30.39 1029 10 16 N/A
12:34 am 00:34 Cloudy 28 -2 25 -4 86 86 NE 3 6 30.39 1029 10 16 N/A
12:54 am 00:54 Cloudy 28 -2 25 -4 86 86 N N/A 30.42 1030 10 16 N/A
1:15 am 01:15 Cloudy 28 -2 25 -4 86 86 NE 3 6 30.39 1029 10 16 N/A
1:34 am 01:34 Cloudy 28 -2 25 -4 86 86 N N/A 30.39 1029 10 16 N/A
1:55 am 01:55 Cloudy 30 -1 25 -4 80 80 N N/A 30.39 1029 10 16 N/A
2:14 am 02:14 Cloudy 28 -2 25 -4 86 86 ESE 3 6 30.39 1029 10 16 N/A
2:34 am 02:34 Cloudy 30 -1 25 -4 80 80 N N/A 30.42 1030 10 16 N/A
2:55 am 02:55 Cloudy 30 -1 25 -4 80 80 N N/A 30.42 1030 10 16 N/A
3:14 am 03:14 Cloudy 28 -2 25 -4 86 86 N N/A 30.42 1030 10 16 N/A
3:34 am 03:34 Cloudy 28 -2 25 -4 86 86 N N/A 30.42 1030 7 11 N/A
3:55 am 03:55 Cloudy 30 -1 25 -4 80 80 ENE 3 6 30.42 1030 10 16 N/A
4:14 am 04:14 Cloudy 28 -2 25 -4 86 86 E 3 6 30.42 1030 7 11 N/A
4:34 am 04:34 Cloudy 30 -1 25 -4 80 80 ESE 5 7 30.42 1030 7 11 N/A
4:55 am 04:55 Cloudy 30 -1 25 -4 80 80 ESE 5 7 30.42 1030 7 11 N/A
5:14 am 05:14 Cloudy 30 -1 25 -4 80 80 ESE 3 6 30.42 1030 10 16 N/A
5:34 am 05:34 Cloudy 30 -1 25 -4 80 80 N N/A 30.42 1030 7 11 N/A
5:55 am 05:55 Cloudy 30 -1 25 -4 80 80 E 3 6 30.45 1031 7 11 N/A
6:14 am 06:14 Cloudy 30 -1 25 -4 80 80 ESE 5 7 30.45 1031 7 11 N/A
6:34 am 06:34 Cloudy 30 -1 25 -4 80 80 ESE 5 7 30.45 1031 10 16 N/A
6:55 am 06:55 Cloudy 30 -1 25 -4 80 80 ESE 3 6 30.45 1031 10 16 N/A
7:14 am 07:14 Cloudy 30 -1 25 -4 80 80 ESE 5 7 30.45 1031 10 16 N/A
7:34 am 07:34 Cloudy 30 -1 25 -4 80 80 N N/A 30.45 1031 7 11 N/A
7:55 am 07:55 Mostly Cloudy 28 -2 25 -4 86 86 SSE 3 6 30.50 1033 7 11 N/A
8:14 am 08:14 Partly Cloudy 30 -1 25 -4 80 80 SE 5 7 30.48 1032 7 11 N/A
8:34 am 08:34 Partly Cloudy 30 -1 27 -3 86 86 SSE 7 11 30.48 1032 7 11 N/A
8:55 am 08:55 Sunny 32 undefined 27 -3 80 80 SSE 9 15 30.48 1032 7 11 N/A
9:14 am 09:14 Sunny 32 undefined 27 -3 80 80 SE 9 15 30.48 1032 7 11 N/A
9:34 am 09:34 Sunny 32 undefined 27 -3 80 80 SSE 10 17 30.48 1032 7 11 N/A
9:55 am 09:55 Sunny 32 undefined 27 -3 80 80 S 8 13 30.48 1032 7 11 N/A
10:14 am 10:14 Sunny 32 undefined 27 -3 80 80 S 8 13 30.50 1033 7 11 N/A
10:34 am 10:34 Sunny 34 1 28 -2 81 81 SSE 8 13 30.48 1032 7 11 N/A
10:55 am 10:55 Sunny 34 1 28 -2 81 81 SSE 8 13 30.50 1033 7 11 N/A
11:14 am 11:14 Sunny 36 2 28 -2 75 75 S 9 15 30.48 1032 7 11 N/A
11:34 am 11:34 Sunny 36 2 28 -2 75 75 S 12 19 30.48 1032 7 11 N/A
11:55 am 11:55 Sunny 37 3 28 -2 70 70 S 10 17 30.48 1032 10 16 N/A
12:14 pm 12:14 Sunny 37 3 28 -2 70 70 S 12 19 30.48 1032 10 16 N/A
12:34 pm 12:34 Sunny 39 4 28 -2 65 65 SSE 14 22 30.48 1032 7 11 N/A
12:55 pm 12:55 Sunny 39 4 28 -2 65 65 SSE 15 24 30.45 1031 10 16 N/A
1:14 pm 13:14 Mostly Cloudy 39 4 28 -2 65 65 SSE 13 20 30.45 1031 10 16 N/A
1:34 pm 13:34 Cloudy 39 4 28 -2 65 65 SSE 14 22 30.45 1031 10 16 N/A
1:54 pm 13:54 Partly Cloudy 39 4 28 -2 65 65 S 15 24 30.42 1030 10 16 N/A
2:14 pm 14:14 Sunny 41 5 30 -1 66 66 SSE 17 28 30.42 1030 10 16 N/A
2:35 pm 14:35 Sunny 41 5 30 -1 66 66 SE 16 26 30.39 1029 10 16 N/A
2:54 pm 14:54 Sunny 41 5 28 -2 61 61 SSE 17 28 30.39 1029 10 16 N/A
3:14 pm 15:14 Sunny 41 5 30 -1 66 66 SSE 15 24 30.39 1029 10 16 N/A
3:35 pm 15:35 Sunny 43 6 30 -1 61 61 SSE 16 26 30.33 1027 10 16 N/A
3:54 pm 15:54 Sunny 43 6 30 -1 61 61 SSE 14 22 30.33 1027 10 16 N/A
4:14 pm 16:14 Sunny 43 6 30 -1 61 61 SSE 14 22 30.33 1027 10 16 N/A
4:35 pm 16:35 Sunny 41 5 30 -1 66 66 SE 16 26 30.36 1028 10 16 N/A
4:54 pm 16:54 Sunny 41 5 30 -1 66 66 SE 13 20 30.33 1027 10 16 N/A
5:14 pm 17:14 Mostly Cloudy 41 5 30 -1 66 66 SE 13 20 30.33 1027 10 16 N/A
5:35 pm 17:35 Mostly Cloudy 39 4 30 -1 70 70 SE 12 19 30.30 1026 10 16 N/A
5:54 pm 17:54 Mostly Cloudy 39 4 30 -1 70 70 SE 12 19 30.30 1026 10 16 N/A
6:14 pm 18:14 Cloudy 39 4 30 -1 70 70 SE 13 20 30.30 1026 10 16 N/A
6:35 pm 18:35 Cloudy 39 4 30 -1 70 70 SE 13 20 30.30 1026 10 16 N/A
6:54 pm 18:54 Cloudy 39 4 30 -1 70 70 SE 14 22 30.27 1025 10 16 N/A
7:14 pm 19:14 Cloudy 39 4 30 -1 70 70 SE 16 26 30.27 1025 10 16 N/A
7:35 pm 19:35 Cloudy 39 4 30 -1 70 70 SE 14 22 30.27 1025 10 16 N/A
7:54 pm 19:54 Cloudy 39 4 30 -1 70 70 SE 15 24 30.27 1025 10 16 N/A
8:14 pm 20:14 Partly Cloudy 37 3 28 -2 70 70 SE 17 28 30.24 1024 10 16 N/A
8:35 pm 20:35 Partly Cloudy 37 3 28 -2 70 70 SSE 17 28 30.24 1024 10 16 N/A
8:54 pm 20:54 Partly Cloudy 37 3 28 -2 70 70 SSE 16 26 30.24 1024 10 16 N/A
9:14 pm 21:14 Clear 37 3 28 -2 70 70 SSE 14 22 30.24 1024 10 16 N/A
9:35 pm 21:35 Clear 37 3 28 -2 70 70 SE 16 26 30.24 1024 10 16 N/A
9:54 pm 21:54 Clear 37 3 28 -2 70 70 SSE 18 30 30.24 1024 10 16 N/A
10:15 pm 22:15 Clear 37 3 30 -1 75 75 SSE 17 28 30.21 1023 10 16 N/A
10:34 pm 22:34 Clear 37 3 30 -1 75 75 SSE 22 35 30.21 1023 10 16 N/A
10:54 pm 22:54 Clear 37 3 30 -1 75 75 SSE 18 30 30.18 1022 10 16 N/A
11:15 pm 23:15 Clear 37 3 30 -1 75 75 SSE 18 30 30.18 1022 10 16 N/A
11:34 pm 23:34 Clear 37 3 30 -1 75 75 SSE 18 30 30.18 1022 10 16 N/A
11:54 pm 23:54 Clear 39 4 30 -1 70 70 SSE 20 31 30.12 1020 10 16 N/A

Powered by AerisWeather